METEOR-M2 4

Last updated on Tue Oct 14 2025 00:02:22 GMT+0000 (Coordinated Universal Time)

1 59051U 24039A 25286.63159016 .00000055 00000+0 44078-4 0 9998 2 59051 98.6662 244.5134 0007351 155.0783 205.0752 14.22387069 84215
UTC large
Height (km)
Speed (km/s)
/
Latitude / Longitude
Inclination (degrees)
Orbital Period (minutes)
Azimuth
Elevation
Range (km)
Doppler Factor

Next 0 passes for location: London (51.5072 / 0.1276)

Sorry there are no passes over London.